Weather History for Wright-Patt AFB, OH

Change the Weather History Date:

Sunday, August 4, 2013

  Actual Average Record
Temperature  
Mean Temperature 67 °F -  
Max Temperature 76 °F 81 °F 95 °F (2005)
Min Temperature 59 °F 61 °F 58 °F (2014)
Cooling Degree Days 2    
Growing Degree Days 17 (Base 50)    
Moisture  
Dew Point 56 °F    
Average Humidity 67    
Maximum Humidity 86    
Minimum Humidity 45    
Precipitation  
Precipitation 0.00 in - - ()
Sea Level Pressure  
Sea Level Pressure 30.12 in    
Wind  
Wind Speed 6 mph (NNW)    
Max Wind Speed 13 mph    
Max Gust Speed 17 mph    
Visibility 10 miles    
Events      
Averages and records for this station are not official NWS values.
T = Trace of Precipitation, MM = Missing Value Source: NWS Daily Summary

Daily Weather History Graph

Daily Weather History Graph

Search for Another Location

Airport:

Trip Planner

Search our weather history database for the weather conditions in past years. The results will help you decide how hot, cold, wet, or windy it might be!

Date:

Astronomy

Aug. 04, 2013 Rise Set
Actual Time 6:37 AM EDT 8:45 PM EDT
Civil Twilight 6:08 AM EDT 9:15 PM EDT
Nautical Twilight 5:31 AM EDT 9:52 PM EDT
Astronomical Twilight 4:51 AM EDT 10:31 PM EDT
Moon 4:38 AM EDT (8/4) 7:08 PM EDT (8/4)
Length of Visible Light 15h 07m
Length of Day
14h 07m
Waning Crescent, 5% of the Moon is Illuminated
Aug 4
Waning Crescent
Aug 6
New
Aug 14
First Quarter
Aug 20
Full
Aug 28
Last Quarter

Hourly Weather History & Observations

Time (EDT) Temp. Dew Point Humidity Pressure Visibility Wind Dir Wind Speed Gust Speed Precip Events Conditions
12:58 AM 66.9 °F 59.7 °F 78% 30.05 in 10.0 mi NNW 6.9 mph - N/A   Clear
1:58 AM 66.7 °F 57.7 °F 73% 30.06 in 10.0 mi NNW 4.6 mph - N/A   Partly Cloudy
2:58 AM 65.3 °F 57.0 °F 75% 30.06 in 10.0 mi North 5.8 mph - N/A   Mostly Cloudy
3:58 AM 64.0 °F 56.5 °F 76% 30.07 in 10.0 mi Variable 4.6 mph - N/A   Overcast
4:58 AM 62.4 °F 55.8 °F 79% 30.08 in 10.0 mi NNW 4.6 mph - N/A   Scattered Clouds
5:58 AM 60.8 °F 55.4 °F 82% 30.09 in 10.0 mi North 1.2 mph - N/A   Partly Cloudy
6:58 AM 59.7 °F 55.6 °F 86% 30.10 in 10.0 mi North 4.6 mph - N/A   Scattered Clouds
7:58 AM 60.8 °F 56.5 °F 86% 30.12 in 10.0 mi North 6.9 mph - N/A   Partly Cloudy
8:58 AM 65.1 °F 58.8 °F 80% 30.14 in 10.0 mi North 8.1 mph - N/A   Clear
9:58 AM 68.5 °F 57.4 °F 67% 30.14 in 10.0 mi NNE 11.5 mph - N/A   Clear
10:58 AM 70.9 °F 56.5 °F 60% 30.15 in 10.0 mi North 10.4 mph - N/A   Clear
11:58 AM 71.8 °F 56.1 °F 58% 30.16 in 10.0 mi North 8.1 mph - N/A   Clear
12:58 PM 72.7 °F 56.3 °F 56% 30.15 in 10.0 mi North 10.4 mph - N/A   Partly Cloudy
1:58 PM 72.7 °F 56.1 °F 56% 30.14 in 10.0 mi North 11.5 mph - N/A   Partly Cloudy
2:30 PM 73.4 °F 57.2 °F 57% 30.14 in 10.0 mi NNW 12.7 mph - N/A   Clear
2:58 PM 74.8 °F 55.4 °F 51% 30.14 in 10.0 mi North 8.1 mph - N/A   Clear
3:58 PM 75.0 °F 55.8 °F 51% 30.13 in 10.0 mi North 8.1 mph - N/A   Clear
4:58 PM 75.6 °F 52.9 °F 45% 30.13 in 10.0 mi NNW 8.1 mph 17.3 mph N/A   Partly Cloudy
5:58 PM 75.4 °F 55.0 °F 49% 30.13 in 10.0 mi North 10.4 mph - N/A   Clear
6:58 PM 73.4 °F 55.0 °F 52% 30.12 in 10.0 mi NNW 3.5 mph - N/A   Clear
7:58 PM 73.0 °F 54.7 °F 52% 30.12 in 10.0 mi North 4.6 mph - N/A   Clear
8:58 PM 67.1 °F 56.8 °F 70% 30.12 in 10.0 mi NNW 3.5 mph - N/A   Clear
9:58 PM 65.3 °F 58.3 °F 78% 30.14 in 10.0 mi West 2.3 mph - N/A   Clear
10:58 PM 62.6 °F 57.0 °F 82% 30.13 in 10.0 mi WSW 1.2 mph - N/A   Clear
11:58 PM 62.2 °F 56.8 °F 82% 30.13 in 10.0 mi Calm Calm - N/A   Clear